Main page
Satellite images Climate Cyclones Lightning AirportsFAQ Languages Contact Newsletter About
Weather : Europe Africa North America South America Asia Australia-Oceania Others

chiang-mai-th, Lampang, Lampang Airport

48328

latitude: , longitude: Thailand, elevation: 18-17N m


METAR: VTCL 161200Z VRB02KT 7000 FEW025 SCT100 24/22 Q1010 NOSIG